Regional Weather Roundup
Issued by NWS San Angelo, TX

Home | Current Version | Previous Version | Text Only | Print | Product List | Glossary On
Versions: 1 2 3 4 5 6 7 8 9 10 11 12 13 14 15 16 17 18 19 20 21 22 23 24 25 26 27 28 29 30 31 32 33 34 35 36 37 38 39 40 41 42 43 44 45 46 47 48 49 50
000
ASUS44 KSJT 262110
RWRSJT
WEST CENTRAL TEXAS REGIONAL WEATHER ROUNDUP
NATIONAL WEATHER SERVICE SAN ANGELO TX
400 PM CDT SUN MAR 26 2017

NOTE: "FAIR" INDICATES FEW OR NO CLOUDS BELOW 12,000 FEET WITH NO
SIGNIFICANT WEATHER AND/OR OBSTRUCTIONS TO VISIBILITY.

TXZ049-054-064>066-071>073-076>078-098-099-113-114-127-128-139-140-
154-155-168>170-262200
...LOCATIONS ACROSS WEST CENTRAL TEXAS...

CITY           SKY/WX    TMP DP  RH WIND       PRES   REMARKS
SAN ANGELO     PTSUNNY   85  24  11 W17       29.76F
ABILENE        CLOUDY    79  47  32 W10       29.76F
DYESS AFB      PTSUNNY   81  37  20 W15       29.75F
JUNCTION       SUNNY     86  51  29 SW14G20   29.76F
SWEETWATER     SUNNY     79  28  15 SW14G20   29.81F
BROWNWOOD      MOSUNNY   86  48  26 SW13      29.72F
COLEMAN        PTCLDY    84  47  27 W13       29.74F
SONORA         MOSUNNY   86  39  19 NW6G13    29.83F
OZONA            N/A     86  28  12 MISG      29.82F
BRADY          NOT AVBL
$$

TEXAS PANHANDLE/OKLAHOMA PANHANDLE

CITY           SKY/WX    TMP DP  RH WIND       PRES   REMARKS
AMARILLO       PTSUNNY   77  29  17 W17G25    29.71S
BORGER         MOSUNNY   71  34  25 NW21G26   29.71R
CANADIAN       PTSUNNY   77  30  18 W20G31    29.65R
DALHART        CLOUDY    67  35  30 N18       29.77R
DUMAS          PTCLDY    64  36  35 N23G30    29.75R
GUYMON         NOT AVBL
HEREFORD       CLEAR     75  29  18 NW16G29   29.75S
PAMPA          CLOUDY    72  33  23 N16G28    29.70S
PERRYTON       SUNNY     70  43  37 NW32G39   29.70R
$$

SOUTHERN PANHANDLE/SOUTH PLAINS/ROLLING PLAINS

CITY           SKY/WX    TMP DP  RH WIND       PRES   REMARKS
LUBBOCK        PTSUNNY   78  15   9 W23G39    29.75F
SNYDER         SUNNY     81  29  15 SW25G32   29.77F
CHILDRESS      SUNNY     84  19   9 W22G36    29.67F
SEMINOLE       CLEAR     77  22  13 W15G32    29.81F
$$

PERMIAN BASIN

CITY           SKY/WX    TMP DP  RH WIND       PRES   REMARKS
MIDLAND        SUNNY     81  25  12 SW23G32   29.80F
ODESSA           N/A     82  23  11 W29G37    29.80F
WINK           SUNNY     81  24  12 W23G37    29.79F
$$

FAR WEST/SOUTHWEST MOUNTAINS/TRANS PECOS

CITY           SKY/WX    TMP DP  RH WIND       PRES   REMARKS
ALPINE         CLEAR     77  16  10 W16G30    29.97F
DRYDEN           N/A     91  13   5 SW16G25   29.76F
EL PASO        MOSUNNY   74  21  13 NW15G32   29.92F
FORT STOCKTON  SUNNY     85  23  10 W13G21    29.82F
GUADALUPE PASS   N/A     69  20  15 MISG        N/A
MARFA          SUNNY     75  16  10 W18G37    29.96S
PECOS          CLEAR     82  26  13 SW20G33   29.82F
$$

DALLAS/FORT WORTH METROPLEX

CITY           SKY/WX    TMP DP  RH WIND       PRES   REMARKS
DFW AIRPORT    PTSUNNY   82  61  48 S21G28    29.74F
FTW MEACHAM    PTSUNNY   82  59  45 S18G32    29.74F
DAL-EXECUTIVE  CLOUDY    83  62  49 S15G28    29.76F
GRAND PRAIRIE  SUNNY     82  59  44 S15G25    29.78F
ADDISON          N/A     82  59  44 S18G30    29.76S
MESQUITE       CLEAR     81  59  47 SE21      29.78F
LANCASTER      PTCLDY    80  61  52 S18G26    29.78S
$$

NORTH CENTRAL TEXAS

CITY           SKY/WX    TMP DP  RH WIND       PRES   REMARKS
SHRMAN/DENISON CLOUDY    80  60  50 S20G26    29.77S
GAINESVILLE    PTSUNNY   78  59  52 S15G22    29.77F
BRIDGEPORT     CLOUDY    82  59  45 S15G22    29.75F
DENTON         CLOUDY    81  61  50 S23G33    29.76S
WAXAHACHIE     PTCLDY    81  62  51 S20G28    29.78F
GRANBURY       MOCLDY    86  55  34 S15G23    29.76F
$$

WESTERN NORTH TEXAS

CITY           SKY/WX    TMP DP  RH WIND       PRES   REMARKS
WICHITA FALLS  CLOUDY    79  56  45 SW13      29.70F
VERNON         CLEAR     81  28  14 S15G21    29.71F
BRECKENRIDGE   PTCLDY    83  52  33 W12       29.72F
COMANCHE       PTSUNNY   85  55  34 S15       29.73F
$$

CENTRAL AND SOUTH CENTRAL TEXAS

CITY           SKY/WX    TMP DP  RH WIND       PRES   REMARKS
AUSTIN/BERGSTM MOSUNNY   86  61  42 SE17G28   29.78F
WACO           MOSUNNY   82  63  52 S17G26    29.77F
HILLSBORO      PTCLDY    82  64  53 SE24      29.77F
TEMPLE         MOSUNNY   83  62  49 S24G32    29.78F
KILLEEN-GRAY   MOSUNNY   84  59  43 S15G28    29.77F
FORT HOOD      MOSUNNY   83  59  43 S17G28    29.75F
GEORGETOWN     MOSUNNY   84  59  42 S16G28    29.78F
LAGO VISTA     FAIR      84  57  39 S13G23    29.81F
SAN MARCOS     SUNNY     86  59  39 S14G26    29.80F
NEW BRAUNFELS  SUNNY     88  55  32 S23G31    29.78F
RANDOLPH AFB   SUNNY     86  59  40 S16       29.78F
SAN ANTONIO    MOSUNNY   85  55  35 SE22      29.78F
STINSON        SUNNY     88  56  33 S14G24    29.76F
PLEASANTON     NOT AVBL
LA GRANGE      CLOUDY    83  66  55 S9G20     29.80F
GIDDINGS       MOCLDY    83  58  42 S13G21    29.83S
$$

EAST TEXAS

CITY           SKY/WX    TMP DP  RH WIND       PRES   REMARKS
PARIS          CLOUDY    81  61  50 SE18      29.82F
CLARKSVILLE    NOT AVBL
TYLER          MOSUNNY   83  60  45 S14G23    29.82F
LONGVIEW       MOSUNNY   85  62  46 S10       29.83F
PALESTINE      PTCLDY    83  62  48 SE12G22   29.83F
NACOGDOCHES    PTSUNNY   82  61  47 S10G18    29.84F
$$

TEXAS HILL COUNTRY AND EDWARDS PLATEAU

CITY           SKY/WX    TMP DP  RH WIND       PRES   REMARKS
LLANO          CLEAR     90  52  27 S16G24    29.78F
HORSESHOE BAY  FAIR      87  54  32 S15G23    29.78F
KERRVILLE      SUNNY     84  57  39 S17G23    29.81F
FREDERICKSBRG  SUNNY     84  50  30 S17G26    29.79F
ROCKSPRINGS    CLEAR     84  55  37 CALM      29.83F
HONDO          SUNNY     89  58  34 S15G24    29.77F
UVALDE         CLEAR     87  61  40 S9G17     29.76F
DEL RIO        SUNNY     91  35  13 VRB5      29.73F
$$

SOUTHEAST TEXAS

CITY           SKY/WX    TMP DP  RH WIND       PRES   REMARKS
COLLEGE STN    MOSUNNY   85  57  38 SE21G29   29.82F
CALDWELL       NOT AVBL
CROCKETT       PTCLDY    82  59  44 SE10G21   29.86F
BRENHAM        MOSUNNY   85  57  38 S12G20    29.82F
HUNTSVILLE     MOSUNNY   85  56  37 SE9       29.84F
CONROE         MOSUNNY   84  60  44 S21G29    29.84F
HOUSTON BUSH   MOSUNNY   82  68  62 S18G26    29.86S
HOUSTON HOBBY  PTSUNNY   80  66  62 S16G22    29.87S
PERLAND        MOSUNNY   81  65  58 S15G28    29.89S
WHARTON        PTCLDY    81  62  53 S18       29.86F
$$

THE UPPER TEXAS COAST

CITY           SKY/WX    TMP DP  RH WIND       PRES   REMARKS
ORANGE         MOCLDY    77  69  76 S14G22    29.94F
PORT ARTHUR    PTSUNNY   78  68  71 S17G24    29.91F
GALVESTON      MOSUNNY   79  72  79 SE15      29.90F
ANGLETON       PTSUNNY   79  68  69 S23G29    29.88S
BAY CITY       CLOUDY    79  69  70 S15G24    29.87S
$$

TEXAS COASTAL BEND, RIO GRANDE PLAINS DEEP SOUTH TEXAS

CITY           SKY/WX    TMP DP  RH WIND       PRES   REMARKS
VICTORIA       MOSUNNY   81  68  64 S22G28    29.83F
BEEVILLE       FAIR      85  68  55 SE22G29   29.79F
ROCKPORT       PTSUNNY   80  70  71 S13G28    29.82F
PORT ARANSAS   CLEAR     77  70  78 S15G22    29.82F
PORT LAVACA    MOCLDY    80  72  76 S16G26    29.84F
CORPUS CHRISTI MOSUNNY   83  69  62 SE33G43   29.79F
KINGSVILLE NAS MOSUNNY   86  72  62 SE29G37   29.76F
COTULLA        LGT RAIN  93  53  25 S13G20    29.74F
LAREDO         SUNNY     93  61  34 SE14G20   29.73F
BROWNSVILLE    NOT AVBL
PORT ISABEL    PTSUNNY   83  71  67 SE31G37   29.77F
HEBBRONVILLE   CLEAR     89  56  32 S15G25    29.76F
MCALLEN        MOSUNNY   89  68  49 SE25G33   29.75F
WESLACO        PTSUNNY   86  67  51 S23G30    29.76S
FALFURRIAS     CLEAR     90  62  39 SE16G25   29.74F
EDINBURG       PTCLDY    88  65  46 SE22G30   29.76F
$$



USA.gov is the U.S. government's official web portal to all federal, state and local government web resources and services.